Home   Weather   Arlington   Past weeks
Flag for USA

Past Weather in Arlington, Texas, USA — Yesterday and Last 2 Weeks

Now
33 °F

Clear.


Feels Like: 30 °F
Forecast: 56 / 31 °F
Wind: 3 mph from South

Location: Arlington Municipal Airport

Current Time: Jan 24, 2019 at 6:57:03 am

Latest Report: Jan 24, 2019 at 5:53 am


Visibility: 10 mi

Pressure: 30.07 "Hg

Humidity: 63%

Dew Point: 22 °F

Location of ArlingtonLocation

Past Weather in Arlington — Graph

°F

Arlington Temperature Yesterday

Maximum temperature yesterday: 50 °F (at 3:53 pm)
Minimum temperature yesterday: 28 °F (at 6:53 am)
Average temperature yesterday: 36 °F

High & Low Weather Summary for the Past Weeks

 TemperatureHumidityPressure
High70 °F (Jan 18, 3:53 pm)100% (Jan 11, 4:53 pm)30.59 "Hg (Jan 11, 4:53 pm)
Low25 °F (Jan 20, 5:53 am)20% (Jan 9, 2:53 pm)29.63 "Hg (Jan 18, 4:53 pm)
Average46 °F73%30.15 "Hg
* Reported Jan 9 4:53 am — Jan 24 4:53 am, Arlington. Weather by CustomWeather, © 2019

Note: Actual official high and low records may vary slightly from our data, if they occured in-between our weather recording intervals... More about our weather records

Advertising

Arlington Weather History for the Previous 24 Hours

Scroll right to see more
 ConditionsComfort  
Time TempWeatherWind HumidityBarometerVisibility
4:53 am
Thu, Jan 24
35 °FClear.5 mph59%30.06 "Hg10 mi
3:53 am34 °FClear.5 mph61%30.06 "Hg10 mi
2:53 am34 °FClear.6 mph61%30.06 "Hg10 mi
1:53 am33 °FClear.3 mph63%30.06 "Hg10 mi
12:53 am30 °FClear.3 mph79%30.07 "Hg10 mi
11:53 pm
Wed, Jan 23
28 °FClear.No wind85%30.08 "Hg10 mi
10:53 pm29 °FClear.No wind85%30.10 "Hg10 mi
9:53 pm31 °FClear.No wind76%30.12 "Hg10 mi
8:53 pm34 °FClear.No wind67%30.11 "Hg10 mi
7:53 pm33 °FClear.3 mph70%30.12 "Hg10 mi
6:53 pm41 °FClear.5 mph47%30.12 "Hg10 mi
5:53 pm45 °FClear.9 mph38%30.10 "Hg10 mi
4:53 pm49 °FSunny.14 mph32%30.09 "Hg10 mi
3:53 pm50 °FSunny.20 mph32%30.08 "Hg10 mi
2:53 pm49 °FSunny.14 mph33%30.09 "Hg10 mi
1:53 pm45 °FSunny.17 mph37%30.10 "Hg10 mi
12:53 pm42 °FSunny.21 mph43%30.14 "Hg10 mi
11:53 am38 °FSunny.16 mph48%30.18 "Hg10 mi
10:53 am35 °FSunny.17 mph52%30.20 "Hg10 mi
9:53 am33 °FSunny.21 mph54%30.20 "Hg10 mi
8:53 am30 °FSunny.20 mph61%30.19 "Hg10 mi
7:53 am28 °FSunny.10 mph64%30.18 "Hg10 mi
6:53 am28 °FClear.20 mph64%30.18 "Hg10 mi
Weather by CustomWeather, © 2019

See weather overview